Weather History for Storm Lake, IA

Change the Weather History Date:

Tuesday, March 18, 2014

  Actual Average Record
Temperature  
Mean Temperature 39 °F -  
Max Temperature 48 °F 41 °F 83 °F (2012)
Min Temperature 30 °F 25 °F 15 °F (2013)
Degree Days  
Heating Degree Days 26    
Moisture  
Dew Point 30 °F    
Average Humidity 77    
Maximum Humidity 100    
Minimum Humidity 53    
Precipitation  
Precipitation 0.01 in - - ()
Sea Level Pressure  
Sea Level Pressure 29.55 in    
Wind  
Wind Speed 15 mph (East)    
Max Wind Speed 26 mph    
Max Gust Speed 33 mph    
Visibility 8 miles    
Events Rain , Snow    
Averages and records for this station are not official NWS values.
T = Trace of Precipitation, MM = Missing Value Source: NWS Daily Summary

Daily Weather History Graph

Daily Weather History Graph

Search for Another Location

Airport:

Trip Planner

Search our weather history database for the weather conditions in past years. The results will help you decide how hot, cold, wet, or windy it might be!

Date:

Astronomy

Mar. 18, 2014 Rise Set
Actual Time 7:27 AM CDT 7:30 PM CDT
Civil Twilight 6:59 AM CDT 7:59 PM CDT
Nautical Twilight 6:26 AM CDT 8:32 PM CDT
Astronomical Twilight 5:53 AM CDT 9:05 PM CDT
Moon 9:52 PM CDT (3/18) 8:14 AM CDT (3/18)
Length of Visible Light 12h 59m
Length of Day
12h 03m
Waning Gibbous, 96% of the Moon is Illuminated
Mar 18
Waning Gibbous
Mar 23
Last Quarter
Mar 30
New
Apr 7
First Quarter
Apr 15
Full

Hourly Weather History & Observations

Time (CDT) Temp. Windchill Dew Point Humidity Pressure Visibility Wind Dir Wind Speed Gust Speed Precip Events Conditions
12:15 AM 39.2 °F 30.2 °F 28.4 °F 65% 29.46 in 10.0 mi SSE 17.3 mph - N/A   Scattered Clouds
12:35 AM 39.2 °F 29.6 °F 28.4 °F 65% 29.45 in 10.0 mi SSE 19.6 mph - N/A   Scattered Clouds
12:55 AM 39.2 °F 29.6 °F 28.4 °F 65% 29.45 in 10.0 mi SSE 19.6 mph - N/A   Partly Cloudy
1:15 AM 39.2 °F 30.2 °F 28.4 °F 65% 29.46 in 10.0 mi South 17.3 mph 23.0 mph N/A   Mostly Cloudy
1:35 AM 39.2 °F 30.2 °F 28.4 °F 65% 29.45 in 10.0 mi South 17.3 mph - N/A   Mostly Cloudy
1:55 AM 39.2 °F 31.2 °F 28.4 °F 65% 29.46 in 10.0 mi South 13.8 mph - N/A   Mostly Cloudy
2:15 AM 37.4 °F 28.9 °F 28.4 °F 70% 29.47 in 10.0 mi South 13.8 mph - N/A   Scattered Clouds
2:35 AM 37.4 °F 28.9 °F 28.4 °F 70% 29.46 in 10.0 mi South 13.8 mph - N/A   Mostly Cloudy
2:55 AM 37.4 °F 28.5 °F 28.4 °F 70% 29.47 in 10.0 mi South 15.0 mph - N/A   Scattered Clouds
3:15 AM 35.6 °F 27.1 °F 28.4 °F 75% 29.47 in 10.0 mi South 12.7 mph - N/A   Clear
3:35 AM 35.6 °F 27.1 °F 28.4 °F 75% 29.47 in 10.0 mi South 12.7 mph - N/A   Scattered Clouds
3:55 AM 33.8 °F 24.8 °F 28.4 °F 81% 29.46 in 10.0 mi SSE 12.7 mph - N/A   Mostly Cloudy
4:15 AM 33.8 °F 26.4 °F 28.4 °F 81% 29.46 in 10.0 mi SSE 9.2 mph - N/A   Scattered Clouds
4:35 AM 33.8 °F 25.3 °F 28.4 °F 81% 29.46 in 10.0 mi South 11.5 mph - N/A   Clear
4:55 AM 33.8 °F 25.8 °F 28.4 °F 81% 29.47 in 10.0 mi South 10.4 mph 16.1 mph N/A   Clear
5:15 AM 33.8 °F 25.3 °F 28.4 °F 81% 29.47 in 10.0 mi South 11.5 mph - N/A   Clear
5:35 AM 35.6 °F 26.6 °F 28.4 °F 75% 29.47 in 10.0 mi SSE 13.8 mph - N/A   Clear
5:55 AM 33.8 °F 25.8 °F 28.4 °F 81% 29.48 in 10.0 mi SSE 10.4 mph - N/A   Clear
6:15 AM 33.8 °F 25.3 °F 26.6 °F 75% 29.49 in 10.0 mi SSE 11.5 mph - N/A   Clear
6:35 AM 33.8 °F 27.7 °F 28.4 °F 81% 29.50 in 10.0 mi SE 6.9 mph - N/A   Clear
6:55 AM 32.0 °F 25.6 °F 26.6 °F 80% 29.50 in 10.0 mi East 6.9 mph - N/A   Clear
7:15 AM 30.2 °F 21.3 °F 26.6 °F 86% 29.50 in 10.0 mi SE 10.4 mph - N/A   Clear
7:35 AM 30.2 °F 22.6 °F 26.6 °F 86% 29.51 in 10.0 mi ESE 8.1 mph - N/A   Clear
7:55 AM 32.0 °F 22.5 °F 28.4 °F 87% 29.50 in 10.0 mi ESE 12.7 mph - N/A   Clear
8:15 AM 32.0 °F 22.1 °F 28.4 °F 87% 29.49 in 10.0 mi ESE 13.8 mph - N/A   Clear
8:35 AM 32.0 °F 24.2 °F 28.4 °F 87% 29.50 in 10.0 mi ESE 9.2 mph 16.1 mph N/A   Clear
8:55 AM 32.0 °F 24.8 °F 28.4 °F 87% 29.52 in 10.0 mi East 8.1 mph - N/A   Clear
9:15 AM 33.8 °F 26.4 °F 28.4 °F 81% 29.52 in 10.0 mi ESE 9.2 mph - N/A   Clear
9:35 AM 37.4 °F 29.8 °F 28.4 °F 70% 29.53 in 10.0 mi ESE 11.5 mph - N/A   Clear
9:55 AM 37.4 °F 29.8 °F 28.4 °F 70% 29.53 in 10.0 mi ESE 11.5 mph - N/A   Clear
10:15 AM 35.6 °F 26.6 °F 26.6 °F 70% 29.54 in 10.0 mi East 13.8 mph - N/A   Scattered Clouds
10:35 AM 37.4 °F 29.3 °F 28.4 °F 70% 29.54 in 10.0 mi East 12.7 mph - N/A   Partly Cloudy
10:55 AM 39.2 °F 31.2 °F 28.4 °F 65% 29.54 in 10.0 mi ESE 13.8 mph - N/A   Clear
11:20 AM 41.0 °F 33.9 °F 28.4 °F 61% 29.53 in 10.0 mi ESE 12.7 mph - N/A   Clear
11:35 AM 41.0 °F 33.9 °F 28.4 °F 61% 29.53 in 10.0 mi SE 12.7 mph 19.6 mph N/A   Clear
11:55 AM 42.8 °F 36.2 °F 30.2 °F 61% 29.52 in 10.0 mi SE 12.7 mph - N/A   Clear
12:15 PM 42.8 °F 38.0 °F 30.2 °F 61% 29.53 in 10.0 mi SE 8.1 mph 13.8 mph N/A   Clear
12:35 PM 44.6 °F 40.2 °F 30.2 °F 57% 29.52 in 10.0 mi SE 8.1 mph - N/A   Clear
12:55 PM 44.6 °F 39.2 °F 30.2 °F 57% 29.52 in 10.0 mi SE 10.4 mph - N/A   Clear
1:15 PM 46.4 °F 42.4 °F 30.2 °F 53% 29.52 in 10.0 mi ESE 8.1 mph - N/A   Clear
1:35 PM 46.4 °F 42.4 °F 30.2 °F 53% 29.51 in 10.0 mi East 8.1 mph - N/A   Clear
1:55 PM 48.2 °F - 32.0 °F 54% 29.52 in 10.0 mi SE 4.6 mph 11.5 mph N/A   Scattered Clouds
2:15 PM 46.4 °F 42.4 °F 32.0 °F 57% 29.52 in 10.0 mi East 8.1 mph - N/A   Overcast
2:35 PM 46.4 °F 41.1 °F 32.0 °F 57% 29.52 in 10.0 mi East 11.5 mph - N/A   Mostly Cloudy
2:55 PM 46.4 °F 41.9 °F 32.0 °F 57% 29.52 in 10.0 mi East 9.2 mph - N/A   Partly Cloudy
3:15 PM 46.4 °F 42.4 °F 32.0 °F 57% 29.52 in 10.0 mi NE 8.1 mph - N/A   Mostly Cloudy
3:35 PM 44.6 °F 39.7 °F 32.0 °F 61% 29.54 in 10.0 mi NNE 9.2 mph - N/A   Overcast
3:55 PM 44.6 °F 39.2 °F 32.0 °F 61% 29.54 in 10.0 mi NNE 10.4 mph - N/A   Overcast
4:15 PM 44.6 °F 38.8 °F 32.0 °F 61% 29.55 in 10.0 mi NNE 11.5 mph - N/A   Overcast
4:35 PM 42.8 °F 34.5 °F 35.6 °F 76% 29.54 in 10.0 mi NNE 18.4 mph - N/A   Overcast
4:55 PM 42.8 °F 35.8 °F 35.6 °F 76% 29.55 in 10.0 mi North 13.8 mph - N/A   Overcast
5:15 PM 41.0 °F 31.4 °F 33.8 °F 76% 29.56 in 10.0 mi NNE 21.9 mph 29.9 mph N/A   Overcast
5:35 PM 41.0 °F 32.5 °F 33.8 °F 76% 29.57 in 10.0 mi NNE 17.3 mph 26.5 mph N/A   Overcast
5:55 PM 39.2 °F 29.3 °F 33.8 °F 81% 29.58 in 10.0 mi NNE 20.7 mph 27.6 mph N/A   Overcast
6:15 PM 39.2 °F 28.5 °F 33.8 °F 81% 29.59 in 10.0 mi NNE 24.2 mph 33.4 mph N/A   Overcast
6:35 PM 37.4 °F 26.9 °F 35.6 °F 93% 29.60 in 3.0 mi NNE 20.7 mph 27.6 mph N/A   Overcast
6:55 PM 35.6 °F 24.2 °F 33.8 °F 93% 29.61 in 3.0 mi North 21.9 mph - N/A   Mostly Cloudy
7:15 PM 33.8 °F 21.9 °F 33.8 °F 100% 29.62 in 1.8 mi NNE 21.9 mph - N/A Snow Light Snow
7:35 PM 33.8 °F 22.2 °F 33.8 °F 100% 29.64 in 1.2 mi North 20.7 mph 28.8 mph N/A Rain Light Rain
7:55 PM 32.0 °F 19.5 °F 32.0 °F 100% 29.64 in 0.8 mi North 21.9 mph 28.8 mph 0.01 in   Overcast
8:15 PM 32.0 °F 19.5 °F 32.0 °F 100% 29.66 in 0.8 mi North 21.9 mph 32.2 mph N/A Rain Heavy Rain
8:35 PM 32.0 °F 19.8 °F 32.0 °F 100% 29.68 in 0.8 mi North 20.7 mph 29.9 mph N/A Rain Heavy Rain
8:55 PM 32.0 °F 20.1 °F 32.0 °F 100% 29.69 in 0.5 mi North 19.6 mph 31.1 mph N/A Rain Heavy Rain
9:15 PM 32.0 °F 19.5 °F 32.0 °F 100% 29.70 in 0.2 mi North 21.9 mph - N/A Rain Heavy Rain
9:35 PM 32.0 °F 18.4 °F 32.0 °F 100% 29.71 in 0.5 mi North 26.5 mph - N/A Rain Heavy Rain
9:55 PM 30.2 °F 16.2 °F 30.2 °F 100% 29.72 in 0.5 mi North 25.3 mph 31.1 mph N/A Rain Light Freezing Rain
10:15 PM 30.2 °F 16.8 °F 30.2 °F 100% 29.73 in 0.8 mi North 23.0 mph - N/A Rain Light Freezing Rain
10:35 PM 30.2 °F 17.8 °F 30.2 °F 100% 29.73 in 0.8 mi North 19.6 mph - N/A Rain Light Freezing Rain
10:55 PM 30.2 °F 17.8 °F 30.2 °F 100% 29.74 in 1.0 mi North 19.6 mph 27.6 mph N/A Rain Light Freezing Rain
11:15 PM 30.2 °F 18.1 °F 30.2 °F 100% 29.75 in 1.0 mi North 18.4 mph - N/A Rain Light Freezing Rain
11:35 PM 30.2 °F 17.8 °F 30.2 °F 100% 29.75 in 1.2 mi North 19.6 mph - N/A Rain Light Freezing Rain
11:55 PM 30.2 °F 18.1 °F 30.2 °F 100% 29.76 in 1.5 mi North 18.4 mph - N/A   Overcast